Content
SEND FEEDBACK

Daily
Averages
Monthly
Summary
United States of America

NEW YORK - CENTRAL PARK, NEW YORK


Home > North America > United States > New York
Elevation: 14 feet     Latitude: 40 47N     Longitude: 073 58W

WEATHER
 
SELECT A DAY
Number of Records: 148,109;   Date Range: 11/1/95 - 7/29/14
 
SHARE

PRINT THIS DATA

[ ← Previous Day ]
WEATHER ALMANAC - JANUARY 7, 2013
[ Next Day → ]
[ °C ]   °F
Weather ElementAverageHighLow
Temperature40.5 °F44.1 °F (1:51 pm)37.9 °F (3:51 am)
Dewpoint22.5 °F27 °F (1:51 am)18 °F (3:51 pm)
Humidity50 %65 % (3:51 am)37 % (2:51 pm)
Barometer30.29 in30.39 in (5:51 pm)30.08 in (1:51 am)
Wind Speed5.4 mph12.7 mph (9:51 am)
Wind Gust19.6 mph (9:51 am)
Weather ElementAverage
Visibility10 mi
Wind DirectionSSE (151.7 °)

Weather ElementTotal
Precipitation---
Heating Degree Days24 (Base 65)
Averaged from 23 records on January 7, 2013
WEATHER CONDITIONS BREAKOUT
WIND DIRECTION BREAKOUT
WEATHER BY HOUR - JANUARY 7, 2013
[ °C ]   °F
Local TimeTemperatureDewpointHumidityBarometerVisibilityWind DirectionWind SpeedGust SpeedPrecipitationEventsConditions
1:51 AM39.0 °F27.0 °F62 %30.08 in10.0 miWest (280°)6.9 mphClear
2:51 AM39.0 °F27.0 °F62 %30.09 in10.0 miWNW (290°)8.1 mphClear
3:51 AM37.9 °F27.0 °F65 %30.10 in10.0 miVariable5.8 mphClear
4:51 AM37.9 °F27.0 °F65 %30.13 in10.0 miVariable3.5 mphMostly Cloudy
5:51 AM37.9 °F27.0 °F65 %30.16 in10.0 miVariable5.8 mphClear
6:51 AM37.9 °F27.0 °F65 %30.19 in10.0 miWNW (290°)5.8 mphClear
7:51 AM39.0 °F27.0 °F62 %30.23 in10.0 miWNW (300°)8.1 mphScattered Clouds
8:51 AM39.9 °F27.0 °F60 %30.26 in10.0 miVariable6.9 mphClear
9:51 AM41.0 °F26.1 °F55 %30.29 in10.0 miNW (310°)12.7 mph19.6 mphClear
10:51 AM42.1 °F24.1 °F49 %30.31 in10.0 miNW (310°)8.1 mphPartly Cloudy
11:51 AM43.0 °F21.0 °F42 %30.31 in10.0 miVariable3.5 mphClear
12:51 PM43.0 °F19.9 °F40 %30.32 in10.0 miWNW (300°)6.9 mphClear
1:51 PM44.1 °F19.9 °F38 %30.32 in10.0 miWest (280°)6.9 mphClear
2:51 PM44.1 °F19.0 °F37 %30.34 in10.0 miNorthClear
3:51 PM43.0 °F18.0 °F37 %30.37 in10.0 miWNW (300°)3.5 mphClear
4:51 PM42.1 °F18.0 °F38 %30.38 in10.0 miVariable3.5 mphClear
5:51 PM41.0 °F18.0 °F40 %30.39 in10.0 miWNW (290°)3.5 mphClear
6:51 PM41.0 °F18.0 °F40 %30.39 in10.0 miWNW (300°)4.6 mphClear
7:51 PM39.9 °F18.0 °F41 %30.39 in10.0 miCalmClear
8:51 PM39.0 °F19.0 °F45 %30.38 in10.0 miCalmClear
9:51 PM39.9 °F19.9 °F45 %30.38 in10.0 miCalmClear
10:51 PM41.0 °F21.9 °F47 %30.38 in10.0 miNorthClear
11:51 PM39.0 °F21.0 °F49 %30.38 in10.0 miWSW (240°)9.2 mphClear
Hourly data recorded from KNYC, located miles away from New York - Central Park, New York







STORIES FROM OUR PARTNERS